[[{"header":{"parameterUnit":"m.s-1","parameterCategory":1,"la1":30.2991,"la2":30.254,"lo1":-89.0895,"lo2":-89.0444,"dy":0.0017,"dx":0.0017,"nx":28,"ny":28,"refTime":"2025-07-20T09:00:00:Z","depth":0,"parameterNumber":2,"parameterNumberName":"U-component_of_WINDS"},"data":[0,0,0,0,0,0,0,0,0,0,0,0,0,0,0,0,0,0,0,0,0,0,0,0,0,0,0,0,0,0,0,0,0,0,0,0,0,0,0,0,0,0,0,0,0,0,0,0,0,0,0,0,0,0,0,0,0,0,0.671,0.6712,0,0.687,0.6871,0.6873,0.694,0.6939,0.6939,0.6939,0.7103,0.7108,0.7112,0,0,0,0,0,0,0,0,0,0,0,0,0,0.6463,0.6467,0.671,0.6712,0.6714,0.6869,0.6871,0.6874,0.694,0.6939,0.6939,0.6939,0.7102,0.7107,0.7113,0,0,0,0,0,0,0,0,0,0,0,0,0,0.6591,0.6469,0.671,0.6766,0.6772,0.6869,0.6872,0.6874,0.694,0.6939,0.6939,0.6939,0.71,0.7107,0.7114,0.7166,0,0,0.7135,0.7138,0,0,0,0,0,0,0,0,0.6584,0.66,0.6756,0.6762,0.677,0.6884,0.6845,0.6972,0.694,0.6876,0.6939,0.6938,0.7031,0.7044,0.7075,0.7174,0.7181,0.7136,0.714,0.7143,0.7145,0,0,0,0,0,0,0,0.6575,0.6594,0.6773,0.6758,0.6766,0.6783,0.6801,0.6869,0.6954,0.6882,0.6887,0.6905,0.7035,0.7068,0.7079,0.7184,0.7135,0.7142,0.7146,0.7149,0.7334,0.7335,0,0,0,0,0,0,0.6557,0.6586,0.6768,0.6778,0.6674,0.6788,0.6808,0.6848,0.6954,0.6969,0.6905,0.6907,0.7056,0.7071,0.7085,0.7154,0.7143,0.7149,0.7153,0.7334,0.7335,0.7335,0,0,0,0,0,0,0.6551,0.6572,0.6762,0.6684,0.6709,0.6793,0.6837,0.6851,0.6884,0.6971,0.6987,0.6923,0.7056,0.7075,0.7146,0.716,0.7153,0.7159,0.7333,0.7334,0.7335,0.7291,0,0,0,0,0,0,0.6544,0.657,0.6591,0.6683,0.6713,0.6819,0.6838,0.6855,0.6896,0.6901,0.6992,0.7007,0.7057,0.7135,0.7152,0.717,0.7164,0.7332,0.7333,0.7335,0.7292,0.7291,0.729,0,0,0,0,0,0.6535,0.6573,0.6592,0.6613,0.6741,0.682,0.6837,0.6893,0.6897,0.6919,0.6975,0.7004,0.7156,0.7141,0.7162,0.7182,0.7331,0.7333,0.7334,0.7292,0.7291,0.729,0,0,0,0,0,0,0.648,0.6586,0.6608,0.6677,0.6739,0.6831,0.686,0.689,0.6953,0.6954,0.7022,0.7042,0.7107,0.7151,0.7134,0.7238,0.7246,0.7252,0.7207,0.7206,0.7205,0.7193,0.717,0,0,0,0,0,0.6476,0.6532,0.6621,0.6673,0.6703,0.6776,0.6813,0.6851,0.6918,0.6945,0.7006,0.707,0.7132,0.7172,0.7234,0.7298,0.732,0.7322,0.7321,0.732,0.7324,0.7362,0.7364,0.7341,0.7341,0.7341,0,0,0.6468,0.6533,0.6564,0.6664,0.6716,0.6772,0.6798,0.6856,0.6899,0.6954,0.7024,0.7071,0.7147,0.7215,0.7248,0.7254,0.7335,0.7322,0.732,0.7326,0.7364,0.7366,0.7368,0.7342,0.7342,0.7341,0,0,0.6483,0.6537,0.6586,0.6638,0.6717,0.6766,0.6777,0.6865,0.6898,0.6969,0.7012,0.7063,0.7169,0.7221,0.7262,0.7295,0.7325,0.7313,0.7308,0.7344,0.7346,0.7348,0.736,0.7363,0.7317,0.7317,0.7317,0,0.6463,0.6549,0.6608,0.6664,0.6707,0.6758,0.6809,0.6856,0.6952,0.698,0.6985,0.7118,0.7173,0.7254,0.7262,0.7293,0.7308,0.7303,0.7341,0.7343,0.7346,0.7358,0.7363,0.7315,0.7315,0.7316,0.7316,0,0.6521,0.658,0.6611,0.6701,0.6747,0.68,0.6866,0.6906,0.6939,0.6987,0.7059,0.7126,0.7203,0.7224,0.7258,0.731,0.7311,0.7328,0.7337,0.7346,0.7358,0.7363,0.7312,0.7313,0.7314,0.7314,0,0,0.6507,0.6628,0.6638,0.668,0.677,0.6817,0.6872,0.6946,0.6979,0.7042,0.709,0.7178,0.7194,0.7239,0.7279,0.7311,0.7333,0.7324,0.7326,0.7323,0.7394,0.7381,0.7385,0.7352,0.7353,0.7354,0.7387,0,0.6534,0.6635,0.6689,0.6767,0.6822,0.6871,0.6919,0.698,0.7025,0.7079,0.713,0.7191,0.7207,0.7235,0.7268,0.7323,0.7348,0.7321,0.7398,0.74,0.7378,0.7392,0.7379,0.7407,0.7393,0.7394,0.7394,0,0.6579,0.6641,0.6725,0.6809,0.6834,0.6876,0.6948,0.6999,0.7068,0.7099,0.715,0.7189,0.7249,0.7252,0.7336,0.7317,0.7351,0.7383,0.7385,0.7395,0.7398,0.7402,0.7417,0.7421,0.7403,0.7402,0.7401,0,0.656,0.6665,0.6729,0.6762,0.6862,0.689,0.6933,0.7002,0.7043,0.7106,0.7133,0.7202,0.724,0.7293,0.735,0.7347,0.7427,0.7436,0.7455,0.7454,0.7471,0.7469,0.7491,0.7492,0.7492,0.7492,0.7491,0,0.6585,0.6634,0.6721,0.676,0.6817,0.6878,0.6932,0.6979,0.704,0.7089,0.7135,0.718,0.7252,0.7306,0.7351,0.7413,0.743,0.7457,0.7468,0.7453,0.745,0.7477,0.7477,0.7493,0.7492,0.7492,0.7492,0,0.6574,0.6634,0.6707,0.6794,0.6818,0.6855,0.6931,0.697,0.7018,0.7079,0.7097,0.7172,0.7238,0.7299,0.7387,0.7417,0.748,0.7494,0.7456,0.7463,0.7478,0.7476,0.752,0.7528,0.7522,0.7522,0.7522,0,0.6586,0.6625,0.6716,0.6752,0.6794,0.6851,0.6893,0.6955,0.6997,0.7078,0.7108,0.7177,0.7236,0.7339,0.7401,0.7468,0.7485,0.7496,0.7496,0.7479,0.7486,0.7483,0.7487,0.7495,0.7495,0.7494,0.7494,0,0.6601,0.6628,0.6687,0.6756,0.6804,0.6862,0.6921,0.6947,0.702,0.7064,0.7132,0.7177,0.7267,0.7335,0.7409,0.7453,0.7486,0.7493,0.7502,0.7487,0.7463,0.7476,0.7454,0.7492,0.7493,0.7493,0.7493,0.7493,0.6602,0.6639,0.6709,0.6772,0.6823,0.6877,0.6918,0.6971,0.7028,0.7105,0.7138,0.7206,0.7275,0.7378,0.7422,0.7476,0.7483,0.7495,0.7498,0.75,0.7497,0.7453,0.749,0.749,0.749,0.749,0.749,0,0.6619,0.6667,0.6725,0.6805,0.6855,0.6881,0.6947,0.6987,0.7047,0.7107,0.7164,0.7241,0.7307,0.7374,0.7444,0.7475,0.7491,0.7491,0.749,0.7499,0.7486,0.7473,0.7476,0.7476,0.7476,0.7476,0.7476,0.7476,0.6634,0.6698,0.6734,0.6823,0.687,0.6937,0.6973,0.7023,0.7072,0.7156,0.7211,0.7254,0.7317,0.7392,0.7453,0.7471,0.7495,0.749,0.7512,0.7499,0.75,0.7501,0.7488,0.7495,0.7495,0.7521,0.7521,0.7521]},{"header":{"parameterUnit":"m.s-1","parameterCategory":1,"la1":30.2991,"la2":30.254,"lo1":-89.0895,"lo2":-89.0444,"dy":0.0017,"dx":0.0017,"nx":28,"ny":28,"refTime":"2025-07-20T09:00:00:Z","depth":0,"parameterNumber":3,"parameterNumberName":"V-component_of_WINDS"},"data":[0,0,0,0,0,0,0,0,0,0,0,0,0,0,0,0,0,0,0,0,0,0,0,0,0,0,0,0,0,0,0,0,0,0,0,0,0,0,0,0,0,0,0,0,0,0,0,0,0,0,0,0,0,0,0,0,0,0,4.4559,4.4558,0,4.4508,4.4507,4.4507,4.444,4.4439,4.4438,4.4437,4.4382,4.4382,4.4381,0,0,0,0,0,0,0,0,0,0,0,0,0,4.4596,4.4596,4.4559,4.4558,4.4558,4.4508,4.4507,4.4507,4.4441,4.4439,4.4438,4.4437,4.4383,4.4382,4.4381,0,0,0,0,0,0,0,0,0,0,0,0,0,4.4566,4.4596,4.4559,4.4519,4.4514,4.4508,4.4507,4.4507,4.4441,4.4439,4.4438,4.4436,4.4383,4.4382,4.4381,4.441,0,0,4.4379,4.4379,0,0,0,0,0,0,0,0,4.4568,4.4565,4.4525,4.4521,4.4517,4.4479,4.4501,4.4474,4.4441,4.4469,4.4437,4.4435,4.4416,4.4412,4.4406,4.4407,4.4405,4.4379,4.4379,4.4379,4.4378,0,0,0,0,0,0,0,4.457,4.4567,4.4539,4.4525,4.452,4.4502,4.4496,4.4495,4.4452,4.4466,4.4461,4.4456,4.4413,4.4407,4.4404,4.4404,4.4379,4.4379,4.4378,4.4378,4.4427,4.4428,0,0,0,0,0,0,4.4579,4.4569,4.454,4.4537,4.4539,4.4503,4.4496,4.4493,4.4452,4.4444,4.4458,4.4453,4.4409,4.4405,4.4402,4.4433,4.4379,4.4378,4.4378,4.4425,4.4427,4.4429,0,0,0,0,0,0,4.458,4.4577,4.4542,4.4552,4.4546,4.4504,4.4501,4.4493,4.4486,4.4445,4.4437,4.446,4.4407,4.4403,4.4409,4.443,4.4378,4.4377,4.4423,4.4426,4.4428,4.4496,0,0,0,0,0,0,4.4581,4.4578,4.4588,4.4552,4.4546,4.4551,4.4502,4.4493,4.4486,4.448,4.4445,4.4438,4.4406,4.441,4.4408,4.4428,4.4376,4.4421,4.4424,4.4427,4.4491,4.45,4.4508,0,0,0,0,0,4.4583,4.4608,4.4589,4.4586,4.4558,4.4552,4.4548,4.4512,4.4488,4.4498,4.4472,4.4439,4.4429,4.4411,4.4408,4.4429,4.4419,4.4423,4.4427,4.4487,4.4498,4.4508,0,0,0,0,0,0,4.4647,4.4603,4.4581,4.4596,4.4579,4.4541,4.4552,4.4524,4.4512,4.4507,4.4461,4.4454,4.4466,4.4448,4.4429,4.4455,4.4419,4.4422,4.4466,4.4476,4.4484,4.4488,4.4376,0,0,0,0,0,4.4663,4.4662,4.4623,4.464,4.4633,4.4595,4.459,4.4564,4.4543,4.4535,4.4509,4.449,4.4482,4.4478,4.4469,4.4488,4.448,4.4501,4.4509,4.4516,4.452,4.453,4.4539,4.4441,4.4441,4.4441,0,0,4.4696,4.4672,4.4673,4.4653,4.4636,4.4635,4.4588,4.459,4.4589,4.4535,4.4539,4.452,4.4495,4.4508,4.4513,4.4494,4.4545,4.4521,4.4527,4.4527,4.4535,4.4544,4.4552,4.4444,4.4444,4.4443,0,0,4.4755,4.4737,4.475,4.4734,4.471,4.4684,4.4687,4.4654,4.464,4.4644,4.4603,4.4601,4.4589,4.4573,4.4564,4.4619,4.4589,4.4618,4.4661,4.4671,4.4678,4.4685,4.4705,4.4713,4.4621,4.4621,4.4621,0,4.4799,4.4797,4.4759,4.4764,4.4756,4.4709,4.4721,4.4707,4.4681,4.4676,4.4656,4.464,4.462,4.4629,4.4643,4.4637,4.4639,4.4621,4.4681,4.4687,4.4692,4.4711,4.4719,4.4625,4.4625,4.4624,4.4624,0,4.4852,4.4852,4.4865,4.4842,4.4836,4.4844,4.4807,4.4805,4.478,4.4757,4.4761,4.4736,4.4721,4.4721,4.4696,4.4727,4.4716,4.4689,4.4652,4.4706,4.4723,4.473,4.463,4.4629,4.4628,4.4627,0,0,4.495,4.4907,4.4913,4.4902,4.4872,4.4871,4.4877,4.4864,4.4863,4.4847,4.4851,4.4843,4.4817,4.4807,4.4779,4.4788,4.4835,4.4759,4.4758,4.4775,4.4868,4.4889,4.4898,4.4814,4.4815,4.4816,4.487,0,4.5004,4.5013,4.498,4.4997,4.4997,4.4953,4.4958,4.494,4.4919,4.4915,4.4891,4.4886,4.4853,4.4846,4.4853,4.4828,4.4853,4.4823,4.4817,4.4818,4.4825,4.4907,4.4929,4.4981,4.4877,4.4878,4.4878,0,4.5068,4.5057,4.5075,4.5045,4.5044,4.5049,4.5035,4.5032,4.5011,4.4995,4.4984,4.4953,4.4957,4.4922,4.4927,4.4907,4.4903,4.489,4.4891,4.4889,4.4851,4.4907,4.4997,4.5005,4.4888,4.4888,4.4887,0,4.5139,4.5127,4.5137,4.5129,4.5094,4.51,4.5085,4.5063,4.5057,4.5045,4.5041,4.5028,4.5022,4.5013,4.4979,4.4957,4.4988,4.495,4.4974,4.4975,4.4983,4.4983,4.5073,4.498,4.498,4.498,4.4979,0,4.5202,4.5215,4.5168,4.5174,4.5187,4.5149,4.5163,4.5144,4.5124,4.5126,4.5086,4.5088,4.5043,4.504,4.5014,4.5022,4.5019,4.5006,4.4999,4.501,4.5012,4.5006,4.5002,4.4982,4.4981,4.4981,4.498,0,4.5283,4.5252,4.5259,4.5227,4.5219,4.523,4.5201,4.5205,4.5182,4.5184,4.5183,4.5146,4.514,4.5106,4.5092,4.5075,4.5092,4.5078,4.51,4.5095,4.5122,4.512,4.5212,4.5222,4.5123,4.5124,4.5125,0,4.5326,4.5335,4.5304,4.5302,4.529,4.5288,4.5283,4.5245,4.5241,4.5219,4.5226,4.5217,4.5208,4.5202,4.5173,4.5163,4.5148,4.5181,4.5146,4.5157,4.5149,4.5149,4.5149,4.5188,4.5189,4.519,4.5191,0,4.5406,4.539,4.5384,4.5374,4.5369,4.5358,4.5345,4.5346,4.5305,4.5302,4.5297,4.529,4.5277,4.5269,4.5254,4.5238,4.5208,4.5203,4.5208,4.5219,4.5232,4.5225,4.5121,4.52,4.52,4.5199,4.5198,4.5198,4.5469,4.5475,4.5454,4.5449,4.5436,4.5425,4.5428,4.5405,4.54,4.5387,4.5366,4.5364,4.5343,4.532,4.5307,4.5304,4.5287,4.5294,4.5296,4.5298,4.5304,4.5232,4.5301,4.5301,4.5301,4.53,4.53,0,4.5547,4.5532,4.5527,4.5511,4.5508,4.5481,4.5465,4.5464,4.5463,4.5446,4.5439,4.5433,4.5426,4.5398,4.5387,4.5391,4.5377,4.5389,4.5388,4.5386,4.532,4.5317,4.5401,4.5401,4.5401,4.5401,4.5401,4.5401,4.5587,4.5596,4.5579,4.5581,4.5566,4.5564,4.5558,4.5548,4.5535,4.553,4.5524,4.5506,4.5485,4.5473,4.5465,4.5457,4.5455,4.5473,4.546,4.54,4.539,4.5381,4.5378,4.5473,4.5473,4.5525,4.5526,4.5526]}]]